Year,Month,Day,Hour,Minute,Value (Times are PST for temperature in C)
2015,04,19,00,00,8.30
2015,04,19,00,01,8.20
2015,04,19,00,02,8.30
2015,04,19,00,03,8.30
2015,04,19,00,04,8.40
2015,04,19,00,05,8.30
2015,04,19,00,06,8.30
2015,04,19,00,07,8.30
2015,04,19,00,08,8.20
2015,04,19,00,09,8.10
2015,04,19,00,10,8.00
2015,04,19,00,11,8.00
2015,04,19,00,12,7.90
2015,04,19,00,13,7.90
2015,04,19,00,14,8.00
2015,04,19,00,15,8.00
2015,04,19,00,16,8.10
2015,04,19,00,17,8.20
2015,04,19,00,18,8.20
2015,04,19,00,19,8.30
2015,04,19,00,20,8.40
2015,04,19,00,21,8.40
2015,04,19,00,22,8.40
2015,04,19,00,23,8.50
2015,04,19,00,24,8.50
2015,04,19,00,25,8.50
2015,04,19,00,26,8.50
2015,04,19,00,27,8.40
2015,04,19,00,28,8.30
2015,04,19,00,29,8.30
2015,04,19,00,30,8.30
2015,04,19,00,31,8.30
2015,04,19,00,32,8.30
2015,04,19,00,33,8.30
2015,04,19,00,34,8.30
2015,04,19,00,35,8.30
2015,04,19,00,36,8.30
2015,04,19,00,37,8.40
2015,04,19,00,38,8.40
2015,04,19,00,39,8.40
2015,04,19,00,40,8.40
2015,04,19,00,41,8.40
2015,04,19,00,42,8.40
2015,04,19,00,43,8.40
2015,04,19,00,44,8.40
2015,04,19,00,45,8.40
2015,04,19,00,46,8.40
2015,04,19,00,47,8.40
2015,04,19,00,48,8.30
2015,04,19,00,49,8.30
2015,04,19,00,50,8.30
2015,04,19,00,51,8.30
2015,04,19,00,52,8.20
2015,04,19,00,53,8.20
2015,04,19,00,54,8.10
2015,04,19,00,55,8.10
2015,04,19,00,56,8.00
2015,04,19,00,57,7.90
2015,04,19,00,58,7.80
2015,04,19,00,59,7.70
2015,04,19,01,00,7.70
2015,04,19,01,01,7.60
2015,04,19,01,02,7.60
2015,04,19,01,03,7.60
2015,04,19,01,04,7.70
2015,04,19,01,05,7.70
2015,04,19,01,06,7.60
2015,04,19,01,07,7.60
2015,04,19,01,08,7.50
2015,04,19,01,09,7.40
2015,04,19,01,10,7.40
2015,04,19,01,11,7.30
2015,04,19,01,12,7.30
2015,04,19,01,13,7.20
2015,04,19,01,14,7.10
2015,04,19,01,15,7.00
2015,04,19,01,16,7.00
2015,04,19,01,17,6.90
2015,04,19,01,18,6.90
2015,04,19,01,19,6.80
2015,04,19,01,20,6.80
2015,04,19,01,21,6.70
2015,04,19,01,22,6.70
2015,04,19,01,23,6.60
2015,04,19,01,24,6.60
2015,04,19,01,25,6.60
2015,04,19,01,26,6.60
2015,04,19,01,27,6.70
2015,04,19,01,28,6.80
2015,04,19,01,29,6.80
2015,04,19,01,30,6.90
2015,04,19,01,31,7.00
2015,04,19,01,32,7.00
2015,04,19,01,33,7.10
2015,04,19,01,34,7.10
2015,04,19,01,35,7.20
2015,04,19,01,36,7.20
2015,04,19,01,37,7.30
2015,04,19,01,38,7.30
2015,04,19,01,39,7.30
2015,04,19,01,40,7.40
2015,04,19,01,41,7.40
2015,04,19,01,42,7.40
2015,04,19,01,43,7.50
2015,04,19,01,44,7.50
2015,04,19,01,45,7.60
2015,04,19,01,46,7.70
2015,04,19,01,47,7.70
2015,04,19,01,48,7.70
2015,04,19,01,49,7.80
2015,04,19,01,50,7.80
2015,04,19,01,51,7.80
2015,04,19,01,52,7.80
2015,04,19,01,53,7.90
2015,04,19,01,54,7.90
2015,04,19,01,55,7.90
2015,04,19,01,56,7.90
2015,04,19,01,57,7.90
2015,04,19,01,58,7.90
2015,04,19,01,59,8.00
2015,04,19,02,00,8.00
2015,04,19,02,01,8.00
2015,04,19,02,02,8.00
2015,04,19,02,03,8.00
2015,04,19,02,04,8.00
2015,04,19,02,05,7.90
2015,04,19,02,06,7.90
2015,04,19,02,07,7.90
2015,04,19,02,08,7.90
2015,04,19,02,09,7.90
2015,04,19,02,10,7.90
2015,04,19,02,11,7.90
2015,04,19,02,12,7.90
2015,04,19,02,13,7.90
2015,04,19,02,14,8.00
2015,04,19,02,15,8.00
2015,04,19,02,16,8.10
2015,04,19,02,17,8.10
2015,04,19,02,18,8.10
2015,04,19,02,19,8.10
2015,04,19,02,20,8.20
2015,04,19,02,21,8.20
2015,04,19,02,22,8.20
2015,04,19,02,23,8.20
2015,04,19,02,24,8.20
2015,04,19,02,25,8.10
2015,04,19,02,26,8.10
2015,04,19,02,27,8.10
2015,04,19,02,28,8.10
2015,04,19,02,29,8.10
2015,04,19,02,30,8.10
2015,04,19,02,31,8.10
2015,04,19,02,32,8.10
2015,04,19,02,33,8.10
2015,04,19,02,34,8.10
2015,04,19,02,35,8.10
2015,04,19,02,36,8.10
2015,04,19,02,37,8.10
2015,04,19,02,38,8.10
2015,04,19,02,39,8.10
2015,04,19,02,40,8.10
2015,04,19,02,41,8.10
2015,04,19,02,42,8.10
2015,04,19,02,43,8.10
2015,04,19,02,44,8.10
2015,04,19,02,45,8.20
2015,04,19,02,46,8.20
2015,04,19,02,47,8.20
2015,04,19,02,48,8.20
2015,04,19,02,49,8.10
2015,04,19,02,50,8.10
2015,04,19,02,51,8.10
2015,04,19,02,52,8.10
2015,04,19,02,53,8.10
2015,04,19,02,54,8.10
2015,04,19,02,55,8.00
2015,04,19,02,56,8.00
2015,04,19,02,57,8.00
2015,04,19,02,58,7.90
2015,04,19,02,59,7.90
2015,04,19,03,00,7.90
2015,04,19,03,01,7.80
2015,04,19,03,02,7.80
2015,04,19,03,03,7.80
2015,04,19,03,04,7.80
2015,04,19,03,05,7.80
2015,04,19,03,06,7.70
2015,04,19,03,07,7.70
2015,04,19,03,08,7.70
2015,04,19,03,09,7.70
2015,04,19,03,10,7.70
2015,04,19,03,11,7.70
2015,04,19,03,12,7.60
2015,04,19,03,13,7.60
2015,04,19,03,14,7.60
2015,04,19,03,15,7.60
2015,04,19,03,16,7.60
2015,04,19,03,17,7.50
2015,04,19,03,18,7.40
2015,04,19,03,19,7.40
2015,04,19,03,20,7.30
2015,04,19,03,21,7.30
2015,04,19,03,22,7.20
2015,04,19,03,23,7.20
2015,04,19,03,24,7.10
2015,04,19,03,25,7.10
2015,04,19,03,26,7.10
2015,04,19,03,27,7.10
2015,04,19,03,28,7.10
2015,04,19,03,29,7.20
2015,04,19,03,30,7.20
2015,04,19,03,31,7.20
2015,04,19,03,32,7.20
2015,04,19,03,33,7.20
2015,04,19,03,34,7.10
2015,04,19,03,35,7.10
2015,04,19,03,36,7.10
2015,04,19,03,37,7.10
2015,04,19,03,38,7.00
2015,04,19,03,39,7.00
2015,04,19,03,40,7.00
2015,04,19,03,41,7.00
2015,04,19,03,42,7.10
2015,04,19,03,43,7.10
2015,04,19,03,44,7.10
2015,04,19,03,45,7.10
2015,04,19,03,46,7.10
2015,04,19,03,47,7.10
2015,04,19,03,48,7.20
2015,04,19,03,49,7.20
2015,04,19,03,50,7.20
2015,04,19,03,51,7.20
2015,04,19,03,52,7.20
2015,04,19,03,53,7.20
2015,04,19,03,54,7.20
2015,04,19,03,55,7.30
2015,04,19,03,56,7.30
2015,04,19,03,57,7.30
2015,04,19,03,58,7.30
2015,04,19,03,59,7.30
2015,04,19,04,00,7.30
2015,04,19,04,01,7.30
2015,04,19,04,02,7.30
2015,04,19,04,03,7.30
2015,04,19,04,04,7.30
2015,04,19,04,05,7.30
2015,04,19,04,06,7.30
2015,04,19,04,07,7.30
2015,04,19,04,08,7.30
2015,04,19,04,09,7.30
2015,04,19,04,10,7.30
2015,04,19,04,11,7.30
2015,04,19,04,12,7.30
2015,04,19,04,13,7.30
2015,04,19,04,14,7.30
2015,04,19,04,15,7.30
2015,04,19,04,16,7.30
2015,04,19,04,17,7.30
2015,04,19,04,18,7.30
2015,04,19,04,19,7.30
2015,04,19,04,20,7.30
2015,04,19,04,21,7.30
2015,04,19,04,22,7.30
2015,04,19,04,23,7.30
2015,04,19,04,24,7.30
2015,04,19,04,25,7.30
2015,04,19,04,26,7.30
2015,04,19,04,27,7.30
2015,04,19,04,28,7.30
2015,04,19,04,29,7.20
2015,04,19,04,30,7.20
2015,04,19,04,31,7.20
2015,04,19,04,32,7.20
2015,04,19,04,33,7.20
2015,04,19,04,34,7.10
2015,04,19,04,35,7.10
2015,04,19,04,36,7.10
2015,04,19,04,37,7.10
2015,04,19,04,38,7.10
2015,04,19,04,39,7.10
2015,04,19,04,40,7.10
2015,04,19,04,41,7.00
2015,04,19,04,42,6.90
2015,04,19,04,43,6.90
2015,04,19,04,44,6.80
2015,04,19,04,45,6.70
2015,04,19,04,46,6.60
2015,04,19,04,47,6.60
2015,04,19,04,48,6.50
2015,04,19,04,49,6.40
2015,04,19,04,50,6.30
2015,04,19,04,51,6.30
2015,04,19,04,52,6.20
2015,04,19,04,53,6.20
2015,04,19,04,54,6.20
2015,04,19,04,55,6.20
2015,04,19,04,56,6.20
2015,04,19,04,57,6.20
2015,04,19,04,58,6.30
2015,04,19,04,59,6.30
2015,04,19,05,00,6.30
2015,04,19,05,01,6.30
2015,04,19,05,02,6.30
2015,04,19,05,03,6.30
2015,04,19,05,04,6.30
2015,04,19,05,05,6.40
2015,04,19,05,06,6.40
2015,04,19,05,07,6.40
2015,04,19,05,08,6.40
2015,04,19,05,09,6.40
2015,04,19,05,10,6.40
2015,04,19,05,11,6.30
2015,04,19,05,12,6.30
2015,04,19,05,13,6.30
2015,04,19,05,14,6.30
2015,04,19,05,15,6.20
2015,04,19,05,16,6.20
2015,04,19,05,17,6.10
2015,04,19,05,18,6.10
2015,04,19,05,19,6.00
2015,04,19,05,20,6.00
2015,04,19,05,21,5.90
2015,04,19,05,22,5.90
2015,04,19,05,23,6.00
2015,04,19,05,24,6.00
2015,04,19,05,25,6.10
2015,04,19,05,26,6.20
2015,04,19,05,27,6.20
2015,04,19,05,28,6.30
2015,04,19,05,29,6.30
2015,04,19,05,30,6.40
2015,04,19,05,31,6.50
2015,04,19,05,32,6.50
2015,04,19,05,33,6.60
2015,04,19,05,34,6.60
2015,04,19,05,35,6.70
2015,04,19,05,36,6.70
2015,04,19,05,37,6.80
2015,04,19,05,38,6.90
2015,04,19,05,39,6.90
2015,04,19,05,40,7.00
2015,04,19,05,41,7.00
2015,04,19,05,42,7.10
2015,04,19,05,43,7.10
2015,04,19,05,44,7.10
2015,04,19,05,45,7.10
2015,04,19,05,46,7.20
2015,04,19,05,47,7.20
2015,04,19,05,48,7.20
2015,04,19,05,49,7.20
2015,04,19,05,50,7.20
2015,04,19,05,51,7.20
2015,04,19,05,52,7.20
2015,04,19,05,53,7.20
2015,04,19,05,54,7.20
2015,04,19,05,55,7.20
2015,04,19,05,56,7.20
2015,04,19,05,57,7.20
2015,04,19,05,58,7.20
2015,04,19,05,59,7.20
2015,04,19,06,00,7.20
2015,04,19,06,01,7.20
2015,04,19,06,02,7.20
2015,04,19,06,03,7.20
2015,04,19,06,04,7.20
2015,04,19,06,05,7.20
2015,04,19,06,06,7.20
2015,04,19,06,07,7.20
2015,04,19,06,08,7.20
2015,04,19,06,09,7.20
2015,04,19,06,10,7.20
2015,04,19,06,11,7.20
2015,04,19,06,12,7.20
2015,04,19,06,13,7.20
2015,04,19,06,14,7.10
2015,04,19,06,15,7.10
2015,04,19,06,16,7.10
2015,04,19,06,17,7.10
2015,04,19,06,18,7.10
2015,04,19,06,19,7.10
2015,04,19,06,20,7.10
2015,04,19,06,21,7.10
2015,04,19,06,22,7.10
2015,04,19,06,23,7.10
2015,04,19,06,24,7.10
2015,04,19,06,25,7.10
2015,04,19,06,26,7.10
2015,04,19,06,27,7.10
2015,04,19,06,28,7.10
2015,04,19,06,29,7.10
2015,04,19,06,30,7.10
2015,04,19,06,31,7.10
2015,04,19,06,32,7.10
2015,04,19,06,33,7.10
2015,04,19,06,34,7.10
2015,04,19,06,35,7.10
2015,04,19,06,36,7.10
2015,04,19,06,37,7.00
2015,04,19,06,38,7.00
2015,04,19,06,39,7.00
2015,04,19,06,40,6.90
2015,04,19,06,41,6.90
2015,04,19,06,42,6.80
2015,04,19,06,43,6.70
2015,04,19,06,44,6.70
2015,04,19,06,45,6.60
2015,04,19,06,46,6.50
2015,04,19,06,47,6.40
2015,04,19,06,48,6.40
2015,04,19,06,49,6.30
2015,04,19,06,50,6.20
2015,04,19,06,51,6.10
2015,04,19,06,52,6.00
2015,04,19,06,53,6.00
2015,04,19,06,54,5.90
2015,04,19,06,55,5.80
2015,04,19,06,56,5.80
2015,04,19,06,57,5.70
2015,04,19,06,58,5.70
2015,04,19,06,59,5.60
2015,04,19,07,00,5.50
2015,04,19,07,01,5.50
2015,04,19,07,02,5.50
2015,04,19,07,03,5.40
2015,04,19,07,04,5.40
2015,04,19,07,05,5.40
2015,04,19,07,06,5.40
2015,04,19,07,07,5.30
2015,04,19,07,08,5.30
2015,04,19,07,09,5.30
2015,04,19,07,10,5.40
2015,04,19,07,11,5.40
2015,04,19,07,12,5.50
2015,04,19,07,13,5.60
2015,04,19,07,14,5.70
2015,04,19,07,15,5.80
2015,04,19,07,16,5.90
2015,04,19,07,17,6.00
2015,04,19,07,18,6.10
2015,04,19,07,19,6.20
2015,04,19,07,20,6.30
2015,04,19,07,21,6.40
2015,04,19,07,22,6.50
2015,04,19,07,23,6.60
2015,04,19,07,24,6.70
2015,04,19,07,25,6.80
2015,04,19,07,26,6.90
2015,04,19,07,27,7.00
2015,04,19,07,28,7.10
2015,04,19,07,29,7.20
2015,04,19,07,30,7.20
2015,04,19,07,31,7.30
2015,04,19,07,32,7.30
2015,04,19,07,33,7.40
2015,04,19,07,34,7.40
2015,04,19,07,35,7.40
2015,04,19,07,36,7.50
2015,04,19,07,37,7.50
2015,04,19,07,38,7.60
2015,04,19,07,39,7.60
2015,04,19,07,40,7.60
2015,04,19,07,41,7.70
2015,04,19,07,42,7.70
2015,04,19,07,43,7.70
2015,04,19,07,44,7.70
2015,04,19,07,45,7.80
2015,04,19,07,46,7.80
2015,04,19,07,47,7.80
2015,04,19,07,48,7.90
2015,04,19,07,49,7.90
2015,04,19,07,50,7.90
2015,04,19,07,51,7.90
2015,04,19,07,52,8.00
2015,04,19,07,53,8.00
2015,04,19,07,54,8.10
2015,04,19,07,55,8.10
2015,04,19,07,56,8.20
2015,04,19,07,57,8.20
2015,04,19,07,58,8.20
2015,04,19,07,59,8.30
2015,04,19,08,00,8.30
2015,04,19,08,01,8.30
2015,04,19,08,02,8.40
2015,04,19,08,03,8.40
2015,04,19,08,04,8.40
2015,04,19,08,05,8.50
2015,04,19,08,06,8.50
2015,04,19,08,07,8.60
2015,04,19,08,08,8.60
2015,04,19,08,09,8.60
2015,04,19,08,10,8.70
2015,04,19,08,11,8.70
2015,04,19,08,12,8.70
2015,04,19,08,13,8.80
2015,04,19,08,14,8.80
2015,04,19,08,15,8.80
2015,04,19,08,16,8.90
2015,04,19,08,17,8.90
2015,04,19,08,18,9.00
2015,04,19,08,19,9.00
2015,04,19,08,20,9.10
2015,04,19,08,21,9.10
2015,04,19,08,22,9.20
2015,04,19,08,23,9.20
2015,04,19,08,24,9.30
2015,04,19,08,25,9.30
2015,04,19,08,26,9.40
2015,04,19,08,27,9.40
2015,04,19,08,28,9.50
2015,04,19,08,29,9.60
2015,04,19,08,30,9.60
2015,04,19,08,31,9.70
2015,04,19,08,32,9.70
2015,04,19,08,33,9.80
2015,04,19,08,34,9.80
2015,04,19,08,35,9.80
2015,04,19,08,36,9.90
2015,04,19,08,37,9.90
2015,04,19,08,38,9.90
2015,04,19,08,39,9.90
2015,04,19,08,40,9.90
2015,04,19,08,41,9.90
2015,04,19,08,42,9.90
2015,04,19,08,43,9.90
2015,04,19,08,44,10.00
2015,04,19,08,45,10.00
2015,04,19,08,46,10.00
2015,04,19,08,47,10.00
2015,04,19,08,48,10.10
2015,04,19,08,49,10.10
2015,04,19,08,50,10.10
2015,04,19,08,51,10.20
2015,04,19,08,52,10.20
2015,04,19,08,53,10.30
2015,04,19,08,54,10.30
2015,04,19,08,55,10.30
2015,04,19,08,56,10.40
2015,04,19,08,57,10.40
2015,04,19,08,58,10.40
2015,04,19,08,59,10.40
2015,04,19,09,00,10.40
2015,04,19,09,01,10.40
2015,04,19,09,02,10.40
2015,04,19,09,03,10.40
2015,04,19,09,04,10.50
2015,04,19,09,05,10.50
2015,04,19,09,06,10.50
2015,04,19,09,07,10.60
2015,04,19,09,08,10.60
2015,04,19,09,09,10.60
2015,04,19,09,10,10.70
2015,04,19,09,11,10.70
2015,04,19,09,12,10.70
2015,04,19,09,13,10.80
2015,04,19,09,14,10.80
2015,04,19,09,15,10.80
2015,04,19,09,16,10.80
2015,04,19,09,17,10.80
2015,04,19,09,18,10.90
2015,04,19,09,19,10.90
2015,04,19,09,20,11.00
2015,04,19,09,21,11.00
2015,04,19,09,22,11.10
2015,04,19,09,23,11.20
2015,04,19,09,24,11.20
2015,04,19,09,25,11.30
2015,04,19,09,26,11.30
2015,04,19,09,27,11.30
2015,04,19,09,28,11.30
2015,04,19,09,29,11.40
2015,04,19,09,30,11.40
2015,04,19,09,31,11.40
2015,04,19,09,32,11.40
2015,04,19,09,33,11.40
2015,04,19,09,34,11.40
2015,04,19,09,35,11.40
2015,04,19,09,36,11.50
2015,04,19,09,37,11.60
2015,04,19,09,38,11.70
2015,04,19,09,39,11.80
2015,04,19,09,40,11.80
2015,04,19,09,41,11.90
2015,04,19,09,42,11.90
2015,04,19,09,43,12.00
2015,04,19,09,44,12.00
2015,04,19,09,45,12.10
2015,04,19,09,46,12.20
2015,04,19,09,47,12.20
2015,04,19,09,48,12.20
2015,04,19,09,49,12.30
2015,04,19,09,50,12.30
2015,04,19,09,51,12.40
2015,04,19,09,52,12.40
2015,04,19,09,53,12.50
2015,04,19,09,54,12.60
2015,04,19,09,55,12.70
2015,04,19,09,56,12.70
2015,04,19,09,57,12.80
2015,04,19,09,58,12.90
2015,04,19,09,59,12.90
2015,04,19,10,00,13.00
2015,04,19,10,01,13.00
2015,04,19,10,02,13.00
2015,04,19,10,03,13.00
2015,04,19,10,04,13.10
2015,04,19,10,05,13.20
2015,04,19,10,06,13.20
2015,04,19,10,07,13.30
2015,04,19,10,08,13.30
2015,04,19,10,09,13.30
2015,04,19,10,10,13.30
2015,04,19,10,11,13.30
2015,04,19,10,12,13.20
2015,04,19,10,13,13.10
2015,04,19,10,14,13.00
2015,04,19,10,15,12.90
2015,04,19,10,16,12.80
2015,04,19,10,17,12.60
2015,04,19,10,18,12.50
2015,04,19,10,19,12.50
2015,04,19,10,20,12.40
2015,04,19,10,21,12.40
2015,04,19,10,22,12.30
2015,04,19,10,23,12.30
2015,04,19,10,24,12.30
2015,04,19,10,25,12.40
2015,04,19,10,26,12.50
2015,04,19,10,27,12.60
2015,04,19,10,28,12.70
2015,04,19,10,29,12.70
2015,04,19,10,30,12.80
2015,04,19,10,31,12.80
2015,04,19,10,32,12.80
2015,04,19,10,33,12.80
2015,04,19,10,34,12.80
2015,04,19,10,35,12.80
2015,04,19,10,36,12.80
2015,04,19,10,37,12.80
2015,04,19,10,38,12.80
2015,04,19,10,39,12.80
2015,04,19,10,40,12.90
2015,04,19,10,41,13.00
2015,04,19,10,42,13.00
2015,04,19,10,43,13.10
2015,04,19,10,44,13.10
2015,04,19,10,45,13.10
2015,04,19,10,46,13.10
2015,04,19,10,47,13.10
2015,04,19,10,48,13.00
2015,04,19,10,49,13.00
2015,04,19,10,50,13.00
2015,04,19,10,51,13.00
2015,04,19,10,52,13.00
2015,04,19,10,53,12.90
2015,04,19,10,54,12.90
2015,04,19,10,55,12.80
2015,04,19,10,56,12.80
2015,04,19,10,57,12.70
2015,04,19,10,58,12.70
2015,04,19,10,59,12.70
2015,04,19,11,00,12.80
2015,04,19,11,01,12.80
2015,04,19,11,02,12.90
2015,04,19,11,03,13.00
2015,04,19,11,04,13.10
2015,04,19,11,05,13.20
2015,04,19,11,06,13.20
2015,04,19,11,07,13.30
2015,04,19,11,08,13.30
2015,04,19,11,09,13.30
2015,04,19,11,10,13.30
2015,04,19,11,11,13.30
2015,04,19,11,12,13.30
2015,04,19,11,13,13.30
2015,04,19,11,14,13.40
2015,04,19,11,15,13.40
2015,04,19,11,16,13.40
2015,04,19,11,17,13.40
2015,04,19,11,18,13.40
2015,04,19,11,19,13.40
2015,04,19,11,20,13.30
2015,04,19,11,21,13.30
2015,04,19,11,22,13.20
2015,04,19,11,23,13.20
2015,04,19,11,24,13.30
2015,04,19,11,25,13.30
2015,04,19,11,26,13.30
2015,04,19,11,27,13.40
2015,04,19,11,28,13.40
2015,04,19,11,29,13.50
2015,04,19,11,30,13.50
2015,04,19,11,31,13.60
2015,04,19,11,32,13.60
2015,04,19,11,33,13.70
2015,04,19,11,34,13.80
2015,04,19,11,35,13.80
2015,04,19,11,36,13.90
2015,04,19,11,37,14.00
2015,04,19,11,38,14.00
2015,04,19,11,39,14.10
2015,04,19,11,40,14.10
2015,04,19,11,41,14.20
2015,04,19,11,42,14.20
2015,04,19,11,43,14.20
2015,04,19,11,44,14.30
2015,04,19,11,45,14.30
2015,04,19,11,46,14.40
2015,04,19,11,47,14.40
2015,04,19,11,48,14.40
2015,04,19,11,49,14.50
2015,04,19,11,50,14.50
2015,04,19,11,51,14.60
2015,04,19,11,52,14.60
2015,04,19,11,53,14.70
2015,04,19,11,54,14.80
2015,04,19,11,55,14.80
2015,04,19,11,56,14.90
2015,04,19,11,57,14.90
2015,04,19,11,58,15.00
2015,04,19,11,59,15.00
2015,04,19,12,00,15.10
2015,04,19,12,01,15.20
2015,04,19,12,02,15.20
2015,04,19,12,03,15.30
2015,04,19,12,04,15.40
2015,04,19,12,05,15.40
2015,04,19,12,06,15.40
2015,04,19,12,07,15.40
2015,04,19,12,08,15.40
2015,04,19,12,09,15.40
2015,04,19,12,10,15.40
2015,04,19,12,11,15.40
2015,04,19,12,12,15.40
2015,04,19,12,13,15.40
2015,04,19,12,14,15.30
2015,04,19,12,15,15.30
2015,04,19,12,16,15.30
2015,04,19,12,17,15.30
2015,04,19,12,18,15.30
2015,04,19,12,19,15.30
2015,04,19,12,20,15.40
2015,04,19,12,21,15.40
2015,04,19,12,22,15.50
2015,04,19,12,23,15.60
2015,04,19,12,24,15.70
2015,04,19,12,25,15.90
2015,04,19,12,26,16.00
2015,04,19,12,27,16.10
2015,04,19,12,28,16.20
2015,04,19,12,29,16.10
2015,04,19,12,30,16.10
2015,04,19,12,31,16.00
2015,04,19,12,32,15.90
2015,04,19,12,33,15.90
2015,04,19,12,34,15.90
2015,04,19,12,35,15.90
2015,04,19,12,36,15.90
2015,04,19,12,37,15.80
2015,04,19,12,38,15.90
2015,04,19,12,39,15.90
2015,04,19,12,40,15.90
2015,04,19,12,41,15.80
2015,04,19,12,42,15.60
2015,04,19,12,43,15.60
2015,04,19,12,44,15.50
2015,04,19,12,45,15.60
2015,04,19,12,46,15.60
2015,04,19,12,47,15.60
2015,04,19,12,48,15.70
2015,04,19,12,49,15.70
2015,04,19,12,50,15.80
2015,04,19,12,51,15.90
2015,04,19,12,52,15.90
2015,04,19,12,53,15.90
2015,04,19,12,54,15.90
2015,04,19,12,55,16.00
2015,04,19,12,56,16.00
2015,04,19,12,57,16.00
2015,04,19,12,58,16.00
2015,04,19,12,59,15.90
2015,04,19,13,00,15.90
2015,04,19,13,01,15.90
2015,04,19,13,02,15.90
2015,04,19,13,03,16.00
2015,04,19,13,04,16.00
2015,04,19,13,05,16.10
2015,04,19,13,06,16.20
2015,04,19,13,07,16.30
2015,04,19,13,08,16.40
2015,04,19,13,09,16.50
2015,04,19,13,10,16.50
2015,04,19,13,11,16.60
2015,04,19,13,12,16.60
2015,04,19,13,13,16.60
2015,04,19,13,14,16.60
2015,04,19,13,15,16.60
2015,04,19,13,16,16.60
2015,04,19,13,17,16.60
2015,04,19,13,18,16.60
2015,04,19,13,19,16.60
2015,04,19,13,20,16.60
2015,04,19,13,21,16.60
2015,04,19,13,22,16.50
2015,04,19,13,23,16.50
2015,04,19,13,24,16.40
2015,04,19,13,25,16.40
2015,04,19,13,26,16.40
2015,04,19,13,27,16.40
2015,04,19,13,28,16.40
2015,04,19,13,29,16.40
2015,04,19,13,30,16.50
2015,04,19,13,31,16.50
2015,04,19,13,32,16.60
2015,04,19,13,33,16.60
2015,04,19,13,34,16.70
2015,04,19,13,35,16.80
2015,04,19,13,36,16.80
2015,04,19,13,37,16.90
2015,04,19,13,38,16.90
2015,04,19,13,39,16.90
2015,04,19,13,40,16.90
2015,04,19,13,41,16.80
2015,04,19,13,42,16.80
2015,04,19,13,43,16.80
2015,04,19,13,44,16.90
2015,04,19,13,45,16.90
2015,04,19,13,46,17.00
2015,04,19,13,47,17.00
2015,04,19,13,48,17.10
2015,04,19,13,49,17.20
2015,04,19,13,50,17.30
2015,04,19,13,51,17.40
2015,04,19,13,52,17.40
2015,04,19,13,53,17.40
2015,04,19,13,54,17.40
2015,04,19,13,55,17.40
2015,04,19,13,56,17.40
2015,04,19,13,57,17.50
2015,04,19,13,58,17.50
2015,04,19,13,59,17.60
2015,04,19,14,00,17.60
2015,04,19,14,01,17.50
2015,04,19,14,02,17.50
2015,04,19,14,03,17.60
2015,04,19,14,04,17.60
2015,04,19,14,05,17.50
2015,04,19,14,06,17.50
2015,04,19,14,07,17.50
2015,04,19,14,08,17.60
2015,04,19,14,09,17.60
2015,04,19,14,10,17.70
2015,04,19,14,11,17.70
2015,04,19,14,12,17.70
2015,04,19,14,13,17.60
2015,04,19,14,14,17.50
2015,04,19,14,15,17.50
2015,04,19,14,16,17.40
2015,04,19,14,17,17.40
2015,04,19,14,18,17.40
2015,04,19,14,19,17.50
2015,04,19,14,20,17.50
2015,04,19,14,21,17.50
2015,04,19,14,22,17.60
2015,04,19,14,23,17.60
2015,04,19,14,24,17.60
2015,04,19,14,25,17.60
2015,04,19,14,26,17.60
2015,04,19,14,27,17.60
2015,04,19,14,28,17.60
2015,04,19,14,29,17.70
2015,04,19,14,30,17.70
2015,04,19,14,31,17.70
2015,04,19,14,32,17.70
2015,04,19,14,33,17.70
2015,04,19,14,34,17.70
2015,04,19,14,35,17.60
2015,04,19,14,36,17.60
2015,04,19,14,37,17.50
2015,04,19,14,38,17.40
2015,04,19,14,39,17.30
2015,04,19,14,40,17.30
2015,04,19,14,41,17.30
2015,04,19,14,42,17.40
2015,04,19,14,43,17.40
2015,04,19,14,44,17.50
2015,04,19,14,45,17.50
2015,04,19,14,46,17.60
2015,04,19,14,47,17.70
2015,04,19,14,48,17.70
2015,04,19,14,49,17.80
2015,04,19,14,50,17.90
2015,04,19,14,51,17.90
2015,04,19,14,52,17.90
2015,04,19,14,53,17.90
2015,04,19,14,54,17.90
2015,04,19,14,55,17.80
2015,04,19,14,56,17.80
2015,04,19,14,57,17.90
2015,04,19,14,58,17.90
2015,04,19,14,59,18.00
2015,04,19,15,00,18.00
2015,04,19,15,01,18.10
2015,04,19,15,02,18.10
2015,04,19,15,03,18.10
2015,04,19,15,04,18.20
2015,04,19,15,05,18.20
2015,04,19,15,06,18.20
2015,04,19,15,07,18.20
2015,04,19,15,08,18.30
2015,04,19,15,09,18.40
2015,04,19,15,10,18.40
2015,04,19,15,11,18.50
2015,04,19,15,12,18.60
2015,04,19,15,13,18.60
2015,04,19,15,14,18.60
2015,04,19,15,15,18.60
2015,04,19,15,16,18.60
2015,04,19,15,17,18.50
2015,04,19,15,18,18.50
2015,04,19,15,19,18.40
2015,04,19,15,20,18.40
2015,04,19,15,21,18.50
2015,04,19,15,22,18.50
2015,04,19,15,23,18.50
2015,04,19,15,24,18.50
2015,04,19,15,25,18.60
2015,04,19,15,26,18.70
2015,04,19,15,27,18.70
2015,04,19,15,28,18.70
2015,04,19,15,29,18.80
2015,04,19,15,30,18.80
2015,04,19,15,31,18.80
2015,04,19,15,32,18.70
2015,04,19,15,33,18.70
2015,04,19,15,34,18.70
2015,04,19,15,35,18.80
2015,04,19,15,36,18.80
2015,04,19,15,37,18.80
2015,04,19,15,38,18.80
2015,04,19,15,39,18.80
2015,04,19,15,40,18.80
2015,04,19,15,41,18.70
2015,04,19,15,42,18.70
2015,04,19,15,43,18.70
2015,04,19,15,44,18.70
2015,04,19,15,45,18.70
2015,04,19,15,46,18.70
2015,04,19,15,47,18.70
2015,04,19,15,48,18.60
2015,04,19,15,49,18.60
2015,04,19,15,50,18.60
2015,04,19,15,51,18.50
2015,04,19,15,52,18.50
2015,04,19,15,53,18.50
2015,04,19,15,54,18.40
2015,04,19,15,55,18.40
2015,04,19,15,56,18.40
2015,04,19,15,57,18.40
2015,04,19,15,58,18.40
2015,04,19,15,59,18.50
2015,04,19,16,00,18.50
2015,04,19,16,01,18.50
2015,04,19,16,02,18.50
2015,04,19,16,03,18.60
2015,04,19,16,04,18.60
2015,04,19,16,05,18.70
2015,04,19,16,06,18.70
2015,04,19,16,07,18.70
2015,04,19,16,08,18.80
2015,04,19,16,09,18.80
2015,04,19,16,10,18.90
2015,04,19,16,11,18.90
2015,04,19,16,12,19.00
2015,04,19,16,13,19.00
2015,04,19,16,14,19.10
2015,04,19,16,15,19.10
2015,04,19,16,16,19.10
2015,04,19,16,17,19.20
2015,04,19,16,18,19.20
2015,04,19,16,19,19.20
2015,04,19,16,20,19.20
2015,04,19,16,21,19.20
2015,04,19,16,22,19.30
2015,04,19,16,23,19.30
2015,04,19,16,24,19.40
2015,04,19,16,25,19.40
2015,04,19,16,26,19.50
2015,04,19,16,27,19.60
2015,04,19,16,28,19.60
2015,04,19,16,29,19.60
2015,04,19,16,30,19.70
2015,04,19,16,31,19.70
2015,04,19,16,32,19.70
2015,04,19,16,33,19.70
2015,04,19,16,34,19.80
2015,04,19,16,35,19.80
2015,04,19,16,36,19.90
2015,04,19,16,37,19.90
2015,04,19,16,38,19.90
2015,04,19,16,39,19.90
2015,04,19,16,40,20.00
2015,04,19,16,41,20.00
2015,04,19,16,42,20.10
2015,04,19,16,43,20.10
2015,04,19,16,44,20.10
2015,04,19,16,45,20.10
2015,04,19,16,46,20.10
2015,04,19,16,47,20.10
2015,04,19,16,48,20.10
2015,04,19,16,49,20.10
2015,04,19,16,50,20.10
2015,04,19,16,51,20.10
2015,04,19,16,52,20.10
2015,04,19,16,53,20.10
2015,04,19,16,54,20.10
2015,04,19,16,55,20.10
2015,04,19,16,56,20.10
2015,04,19,16,57,20.00
2015,04,19,16,58,20.00
2015,04,19,16,59,20.00
2015,04,19,17,00,20.00
2015,04,19,17,01,19.90
2015,04,19,17,02,19.90
2015,04,19,17,03,19.90
2015,04,19,17,04,19.90
2015,04,19,17,05,19.90
2015,04,19,17,06,19.90
2015,04,19,17,07,19.90
2015,04,19,17,08,19.90
2015,04,19,17,09,20.00
2015,04,19,17,10,20.00
2015,04,19,17,11,20.00
2015,04,19,17,12,19.90
2015,04,19,17,13,19.90
2015,04,19,17,14,19.80
2015,04,19,17,15,19.80
2015,04,19,17,16,19.80
2015,04,19,17,17,19.70
2015,04,19,17,18,19.70
2015,04,19,17,19,19.70
2015,04,19,17,20,19.70
2015,04,19,17,21,19.60
2015,04,19,17,22,19.60
2015,04,19,17,23,19.60
2015,04,19,17,24,19.60
2015,04,19,17,25,19.70
2015,04,19,17,26,19.70
2015,04,19,17,27,19.70
2015,04,19,17,28,19.80
2015,04,19,17,29,19.80
2015,04,19,17,30,19.80
2015,04,19,17,31,19.90
2015,04,19,17,32,19.90
2015,04,19,17,33,19.90
2015,04,19,17,34,19.90
2015,04,19,17,35,19.90
2015,04,19,17,36,19.90
2015,04,19,17,37,19.90
2015,04,19,17,38,19.90
2015,04,19,17,39,19.90
2015,04,19,17,40,19.80
2015,04,19,17,41,19.80
2015,04,19,17,42,19.80